Regional Weather Roundup
Issued by NWS

Home | Current Version | Previous Version | Text Only | Print | Product List | Glossary On
Versions: 1 2 3 4 5 6 7 8 9 10 11 12 13 14 15 16 17 18 19 20 21 22 23 24 25 26 27 28 29 30 31 32 33 34 35 36 37 38 39 40 41 42 43 44 45 46 47 48 49 50
000
ASUS45 KBOI 040410
RWRID

IDAHO REGIONAL WEATHER ROUNDUP
NATIONAL WEATHER SERVICE BOISE ID
1000 PM MDT MON AUG 03 2015

NOTE: "FAIR" INDICATES FEW OR NO CLOUDS BELOW 12000 FEET
WITH NO SIGNIFICANT WEATHER AND/OR OBSTRUCTIONS TO VISIBILITY

IDZ012-014-040500-
SOUTHWEST IDAHO


CITY           SKY/WX    TMP DP  RH WIND       PRES   REMARKS
BOISE          PTCLDY    85  48  27 CALM      29.86R
CALDWELL       PTCLDY    82  48  30 W3        29.85R
MOUNTAIN HOME  PTCLDY    80  50  35 E8        29.86R
$$

IDZ016-017-040500-
SOUTHCENTRAL IDAHO


CITY           SKY/WX    TMP DP  RH WIND       PRES   REMARKS
BURLEY         MOCLDY    71  52  50 S16       29.98R
JEROME         PTCLDY    72  49  44 E8        29.97R
TWIN FALLS     PTCLDY    76  49  38 S17       29.94F
$$

IDZ019>023-040500-
SOUTHEAST IDAHO


CITY           SKY/WX    TMP DP  RH WIND       PRES   REMARKS
IDAHO FALLS    CLOUDY    65  55  70 S17       30.04R
POCATELLO      CLOUDY    68  57  68 CALM      30.04R
REXBURG        LGT RAIN  64  53  67 CALM      30.07R
$$

IDZ006-010-011-018-031-032-040500-
CENTRAL IDAHO MOUNTAINS


CITY           SKY/WX    TMP DP  RH WIND       PRES   REMARKS
MCCALL         CLOUDY    64  47  53 NE3       30.02S
HAILEY         PTCLDY    68  50  52 W8        30.07R
STANLEY          N/A     60  41  49 S3        30.15R
SALMON         CLOUDY    73  45  35 S7        29.93R
CHALLIS        CLOUDY    71  44  37 CALM      30.04S
$$

IDZ002-004-006-007-026-040500-
NORTHERN IDAHO


CITY           SKY/WX    TMP DP  RH WIND       PRES   REMARKS
LEWISTON       CLOUDY    82  46  28 NW7       29.84R
LOWELL           N/A     73  54  51 CALM      29.84R
COEUR D`ALENE  CLOUDY    81  43  26 W13       29.85R
MULLAN PASS    CLOUDY    63  36  36 NW6       30.07S
$$


USA.gov is the U.S. government's official web portal to all federal, state and local government web resources and services.